Time,TemperatureF,DewpointF,PressureIn,WindDirection,WindDirectionDegrees,WindSpeedMPH,WindSpeedGustMPH,Humidity,HourlyPrecipIn,Conditions,Clouds,dailyrainin,SolarRadiationWatts/m^2,SoftwareType,DateUTC
2013-02-16 00:00:00,41.1,41.1,30.09,NNW,336,4.6,4.6,100,0.00,RA,,0.00,0.0,WeatherDisplay:10.37,2013-02-16 00:00:00,
2013-02-16 00:05:00,41.3,41.3,30.09,North,0,5.0,5.0,100,0.00,RA,,0.00,0.0,WeatherDisplay:10.37,2013-02-16 00:05:00,
2013-02-16 00:10:00,41.5,41.5,30.09,WSW,239,5.8,5.8,100,0.00,,,0.00,0.0,WeatherDisplay:10.37,2013-02-16 00:10:00,
2013-02-16 00:15:00,41.5,41.5,30.09,North,352,5.8,5.8,100,0.00,,,0.00,0.0,WeatherDisplay:10.37,2013-02-16 00:15:00,
2013-02-16 00:21:00,41.6,41.6,30.09,North,353,7.0,7.0,100,0.00,,,0.00,0.0,WeatherDisplay:10.37,2013-02-16 00:21:00,
2013-02-16 00:26:00,41.6,41.6,30.09,SW,223,11.5,11.5,100,0.00,,,0.00,0.0,WeatherDisplay:10.37,2013-02-16 00:26:00,
2013-02-16 00:31:00,41.6,41.6,30.09,North,350,5.8,5.8,100,0.00,,,0.00,0.0,WeatherDisplay:10.37,2013-02-16 00:31:00,
2013-02-16 00:36:00,41.6,41.6,30.09,NNW,343,4.6,4.6,100,0.00,,,0.00,0.0,WeatherDisplay:10.37,2013-02-16 00:36:00,
2013-02-16 00:41:00,41.6,41.6,30.09,NNW,333,4.0,4.0,100,0.00,,,0.00,0.0,WeatherDisplay:10.37,2013-02-16 00:41:00,
2013-02-16 00:46:00,41.8,41.8,30.09,North,354,5.8,5.8,100,0.00,,,0.00,0.0,WeatherDisplay:10.37,2013-02-16 00:46:00,
2013-02-16 00:51:00,41.8,41.8,30.09,NNW,332,6.9,6.9,100,0.00,,,0.00,0.0,WeatherDisplay:10.37,2013-02-16 00:51:00,
2013-02-16 00:57:00,41.9,41.9,30.09,NNW,336,8.1,8.1,100,0.00,,,0.00,0.0,WeatherDisplay:10.37,2013-02-16 00:57:00,
2013-02-16 01:02:00,42.1,42.1,30.09,North,0,10.4,10.4,100,0.00,,,0.00,0.0,WeatherDisplay:10.37,2013-02-16 01:02:00,
2013-02-16 01:07:00,42.1,42.1,30.09,NNW,339,8.1,8.1,100,0.00,,,0.00,0.0,WeatherDisplay:10.37,2013-02-16 01:07:00,
2013-02-16 01:12:00,42.2,42.2,30.09,North,0,8.1,8.1,100,0.00,,,0.00,0.0,WeatherDisplay:10.37,2013-02-16 01:12:00,
2013-02-16 01:17:00,42.2,42.2,30.09,NNW,337,5.8,5.8,100,0.00,,,0.00,0.0,WeatherDisplay:10.37,2013-02-16 01:17:00,
2013-02-16 01:22:00,42.3,42.3,30.09,North,0,5.8,5.8,100,0.00,,,0.00,0.0,WeatherDisplay:10.37,2013-02-16 01:22:00,
2013-02-16 01:27:00,42.3,42.3,30.09,NNW,337,6.9,6.9,100,0.00,,,0.00,0.0,WeatherDisplay:10.37,2013-02-16 01:27:00,
2013-02-16 01:32:00,42.3,42.3,30.09,WSW,248,4.6,4.6,100,0.00,,,0.00,0.0,WeatherDisplay:10.37,2013-02-16 01:32:00,
2013-02-16 01:37:00,42.3,42.3,30.09,NNW,346,5.8,5.8,100,0.00,,,0.00,0.0,WeatherDisplay:10.37,2013-02-16 01:37:00,
2013-02-16 01:43:00,42.5,42.5,30.09,North,0,6.9,6.9,100,0.00,,,0.00,0.0,WeatherDisplay:10.37,2013-02-16 01:43:00,
2013-02-16 01:48:00,42.6,42.6,30.09,NNW,339,10.4,10.4,100,0.00,,,0.00,0.0,WeatherDisplay:10.37,2013-02-16 01:48:00,
2013-02-16 01:53:00,42.6,42.6,30.09,NNW,347,8.0,8.0,100,0.00,,,0.00,0.0,WeatherDisplay:10.37,2013-02-16 01:53:00,
2013-02-16 01:58:00,42.8,42.8,30.09,NNW,343,8.1,8.1,100,0.00,,,0.00,0.0,WeatherDisplay:10.37,2013-02-16 01:58:00,
2013-02-16 02:03:00,42.8,42.8,30.09,NNW,340,10.4,10.4,100,0.00,,,0.00,0.0,WeatherDisplay:10.37,2013-02-16 02:03:00,
2013-02-16 02:08:00,42.9,42.9,30.09,North,353,6.0,6.0,100,0.00,,,0.00,0.0,WeatherDisplay:10.37,2013-02-16 02:08:00,
2013-02-16 02:14:00,42.9,42.9,30.09,NNW,343,11.5,11.5,100,0.00,,,0.00,0.0,WeatherDisplay:10.37,2013-02-16 02:14:00,
2013-02-16 02:19:00,42.9,42.9,30.09,North,349,5.8,5.8,100,0.00,,,0.00,0.0,WeatherDisplay:10.37,2013-02-16 02:19:00,
2013-02-16 02:24:00,42.9,42.9,30.09,WSW,257,5.8,5.8,100,0.00,,,0.00,0.0,WeatherDisplay:10.37,2013-02-16 02:24:00,
2013-02-16 02:29:00,42.8,42.8,30.09,North,0,5.8,5.8,100,0.00,,,0.00,0.0,WeatherDisplay:10.37,2013-02-16 02:29:00,
2013-02-16 02:34:00,42.8,42.8,30.09,North,0,2.3,2.3,100,0.00,,,0.00,0.0,WeatherDisplay:10.37,2013-02-16 02:34:00,
2013-02-16 02:39:00,42.8,42.8,30.08,North,353,3.5,3.5,100,0.00,,,0.00,0.0,WeatherDisplay:10.37,2013-02-16 02:39:00,
2013-02-16 02:44:00,42.8,42.8,30.08,NNW,336,3.5,3.5,100,0.00,,,0.00,0.0,WeatherDisplay:10.37,2013-02-16 02:44:00,
2013-02-16 02:49:00,42.8,42.8,30.08,SSW,202,5.8,5.8,100,0.00,,,0.00,0.0,WeatherDisplay:10.37,2013-02-16 02:49:00,
2013-02-16 02:54:00,42.8,42.8,30.08,NNW,347,3.5,3.5,100,0.00,,,0.00,0.0,WeatherDisplay:10.37,2013-02-16 02:54:00,
2013-02-16 02:59:00,42.8,42.8,30.08,North,0,3.5,3.5,100,0.00,,,0.00,0.0,WeatherDisplay:10.37,2013-02-16 02:59:00,
2013-02-16 03:05:00,42.8,42.8,30.08,SSW,203,3.5,3.5,100,0.00,,,0.00,0.0,WeatherDisplay:10.37,2013-02-16 03:05:00,
2013-02-16 03:10:00,42.8,42.8,30.08,West,264,0.0,0.0,100,0.00,,,0.00,0.0,WeatherDisplay:10.37,2013-02-16 03:10:00,
2013-02-16 03:15:00,42.6,42.6,30.08,WSW,252,1.0,6.0,100,0.00,,,0.00,0.0,WeatherDisplay:10.37,2013-02-16 03:15:00,
2013-02-16 03:20:00,42.6,42.6,30.08,NNW,336,2.3,0.0,100,0.00,,,0.00,0.0,WeatherDisplay:10.37,2013-02-16 03:20:00,
2013-02-16 03:25:00,42.5,42.5,30.08,North,0,10.4,10.4,100,0.00,,,0.00,0.0,WeatherDisplay:10.37,2013-02-16 03:25:00,
2013-02-16 03:30:00,42.6,42.6,30.08,NNW,337,5.8,5.8,100,0.00,,,0.00,0.0,WeatherDisplay:10.37,2013-02-16 03:30:00,
2013-02-16 03:35:00,42.6,42.6,30.08,NNW,339,3.5,3.5,100,0.00,,,0.00,0.0,WeatherDisplay:10.37,2013-02-16 03:35:00,
2013-02-16 03:40:00,42.6,42.6,30.08,North,0,2.3,2.3,100,0.00,,,0.00,0.0,WeatherDisplay:10.37,2013-02-16 03:40:00,
2013-02-16 03:45:00,42.6,42.6,30.08,NNW,337,3.5,3.5,100,0.00,,,0.00,0.0,WeatherDisplay:10.37,2013-02-16 03:45:00,
2013-02-16 03:51:00,42.8,42.8,30.08,North,359,3.5,3.5,100,0.00,,,0.00,0.0,WeatherDisplay:10.37,2013-02-16 03:51:00,
2013-02-16 03:56:00,42.8,42.8,30.08,West,261,8.1,8.1,100,0.00,,,0.00,0.0,WeatherDisplay:10.37,2013-02-16 03:56:00,
2013-02-16 04:01:00,42.8,42.8,30.08,SSW,210,2.3,2.3,100,0.00,,,0.00,0.0,WeatherDisplay:10.37,2013-02-16 04:01:00,
2013-02-16 04:06:00,42.9,42.9,30.08,North,350,3.5,3.5,100,0.00,,,0.00,0.0,WeatherDisplay:10.37,2013-02-16 04:06:00,
2013-02-16 04:11:00,42.9,42.9,30.08,North,354,4.6,4.6,100,0.00,,,0.00,0.0,WeatherDisplay:10.37,2013-02-16 04:11:00,
2013-02-16 04:16:00,42.9,42.9,30.08,North,350,4.6,4.6,100,0.00,,,0.00,0.0,WeatherDisplay:10.37,2013-02-16 04:16:00,
2013-02-16 04:21:00,42.9,42.9,30.08,North,356,4.0,4.0,100,0.00,,,0.00,0.0,WeatherDisplay:10.37,2013-02-16 04:21:00,
2013-02-16 04:26:00,42.9,42.9,30.08,North,0,2.3,2.3,100,0.00,,,0.00,0.0,WeatherDisplay:10.37,2013-02-16 04:26:00,
2013-02-16 04:31:00,42.9,42.9,30.08,North,0,2.3,2.3,100,0.00,,,0.00,0.0,WeatherDisplay:10.37,2013-02-16 04:31:00,
2013-02-16 04:36:00,42.9,42.9,30.08,NNW,336,5.8,5.8,100,0.00,,,0.00,0.0,WeatherDisplay:10.37,2013-02-16 04:36:00,
2013-02-16 04:41:00,42.9,42.9,30.08,NNW,342,1.2,1.2,100,0.00,,,0.00,0.0,WeatherDisplay:10.37,2013-02-16 04:41:00,
2013-02-16 04:46:00,42.9,42.9,30.08,NNW,342,6.0,6.0,100,0.00,,,0.00,0.0,WeatherDisplay:10.37,2013-02-16 04:46:00,
2013-02-16 04:51:00,42.9,42.9,30.08,North,0,4.6,4.6,100,0.00,,,0.00,0.0,WeatherDisplay:10.37,2013-02-16 04:51:00,
2013-02-16 04:57:00,42.9,42.9,30.08,NNW,340,3.5,3.5,100,0.00,,,0.00,0.0,WeatherDisplay:10.37,2013-02-16 04:57:00,
2013-02-16 05:00:00,42.9,42.9,30.08,NNW,347,5.0,12.0,100,0.00,,,0.00,0.0,WeatherDisplay:10.37,2013-02-16 05:00:00,
2013-02-16 05:01:00,42.9,42.9,30.08,North,0,5.8,5.8,100,0.00,,,0.00,0.0,WeatherDisplay:10.37,2013-02-16 05:01:00,
2013-02-16 05:06:00,43.1,43.1,30.08,North,0,7.0,7.0,100,0.00,,,0.00,0.0,WeatherDisplay:10.37,2013-02-16 05:06:00,
2013-02-16 05:12:00,43.1,43.1,30.08,North,350,4.6,4.6,100,0.00,,,0.00,0.0,WeatherDisplay:10.37,2013-02-16 05:12:00,
2013-02-16 05:17:00,43.1,43.1,30.08,North,359,3.5,3.5,100,0.00,,,0.00,0.0,WeatherDisplay:10.37,2013-02-16 05:17:00,
2013-02-16 05:22:00,43.2,43.2,30.08,North,359,3.5,3.5,100,0.00,,,0.00,0.0,WeatherDisplay:10.37,2013-02-16 05:22:00,
2013-02-16 05:24:00,43.2,43.2,30.08,North,349,3.5,3.5,100,0.00,,,0.00,0.0,WeatherDisplay:10.37,2013-02-16 05:24:00,
2013-02-16 05:29:00,43.2,43.2,30.08,NNW,337,0.0,0.0,100,0.00,,,0.00,0.0,WeatherDisplay:10.37,2013-02-16 05:29:00,
2013-02-16 05:34:00,43.2,43.2,30.08,NNW,343,3.5,3.5,100,0.00,,,0.00,0.0,WeatherDisplay:10.37,2013-02-16 05:34:00,
2013-02-16 05:39:00,43.2,43.2,30.08,NNW,344,2.3,2.3,100,0.00,,,0.00,0.0,WeatherDisplay:10.37,2013-02-16 05:39:00,
2013-02-16 05:44:00,43.2,43.2,30.08,North,0,2.3,2.3,100,0.00,,,0.00,0.0,WeatherDisplay:10.37,2013-02-16 05:44:00,
2013-02-16 05:49:00,43.2,43.2,30.08,SW,217,2.3,2.3,100,0.00,,,0.00,0.0,WeatherDisplay:10.37,2013-02-16 05:49:00,
2013-02-16 05:55:00,43.2,43.2,30.08,North,354,2.0,2.0,100,0.00,,,0.00,0.0,WeatherDisplay:10.37,2013-02-16 05:55:00,
2013-02-16 06:00:00,43.2,43.2,30.08,NNW,343,3.5,3.5,100,0.00,,,0.00,0.0,WeatherDisplay:10.37,2013-02-16 06:00:00,
2013-02-16 06:05:00,43.2,43.2,30.08,North,359,1.2,1.2,100,0.00,,,0.00,0.0,WeatherDisplay:10.37,2013-02-16 06:05:00,
2013-02-16 06:10:00,43.2,43.2,30.08,NNW,337,3.5,3.5,100,0.00,,,0.00,0.0,WeatherDisplay:10.37,2013-02-16 06:10:00,
2013-02-16 06:15:00,43.3,43.3,30.08,NNW,347,1.2,1.2,100,0.00,,,0.00,0.0,WeatherDisplay:10.37,2013-02-16 06:15:00,
2013-02-16 06:20:00,43.3,43.3,30.08,North,350,3.5,3.5,100,0.00,,,0.00,0.0,WeatherDisplay:10.37,2013-02-16 06:20:00,
2013-02-16 06:25:00,43.5,43.5,30.08,NNW,342,8.1,8.1,100,0.00,,,0.00,0.0,WeatherDisplay:10.37,2013-02-16 06:25:00,
2013-02-16 06:30:00,43.6,43.6,30.08,SSW,212,1.2,1.2,100,0.00,,,0.00,0.0,WeatherDisplay:10.37,2013-02-16 06:30:00,
2013-02-16 06:35:00,43.6,43.6,30.07,North,353,0.0,0.0,100,0.00,,,0.00,0.0,WeatherDisplay:10.37,2013-02-16 06:35:00,
2013-02-16 06:40:00,43.8,43.8,30.07,North,350,4.0,4.0,100,0.00,,,0.00,0.0,WeatherDisplay:10.37,2013-02-16 06:40:00,
2013-02-16 06:45:00,43.8,43.8,30.07,North,0,5.8,5.8,100,0.00,,,0.00,0.0,WeatherDisplay:10.37,2013-02-16 06:45:00,
2013-02-16 06:50:00,43.9,43.9,30.07,NNW,336,3.5,3.5,100,0.00,,,0.00,0.0,WeatherDisplay:10.37,2013-02-16 06:50:00,
2013-02-16 06:55:00,43.9,43.9,30.07,North,0,3.5,3.5,100,0.00,,,0.00,0.0,WeatherDisplay:10.37,2013-02-16 06:55:00,
2013-02-16 07:01:00,43.9,43.9,30.07,NNW,335,3.5,3.5,100,0.00,,,0.00,0.0,WeatherDisplay:10.37,2013-02-16 07:01:00,
2013-02-16 07:06:00,43.9,43.9,30.07,NNW,333,2.3,2.3,100,0.00,,,0.00,0.0,WeatherDisplay:10.37,2013-02-16 07:06:00,
2013-02-16 07:11:00,43.9,43.9,30.08,North,0,2.3,2.3,100,0.00,OVC,,0.00,0.0,WeatherDisplay:10.37,2013-02-16 07:11:00,
2013-02-16 07:16:00,43.9,43.9,30.08,NNW,337,3.5,3.5,100,0.00,OVC,,0.00,0.0,WeatherDisplay:10.37,2013-02-16 07:16:00,
2013-02-16 07:21:00,44.1,44.1,30.08,NNW,342,5.8,5.8,100,0.00,OVC,,0.00,0.0,WeatherDisplay:10.37,2013-02-16 07:21:00,
2013-02-16 07:26:00,44.1,44.1,30.08,North,0,2.3,0.0,100,0.00,OVC,,0.00,0.0,WeatherDisplay:10.37,2013-02-16 07:26:00,
2013-02-16 07:32:00,44.1,44.1,30.08,SSW,212,2.3,2.3,100,0.00,OVC,,0.00,0.0,WeatherDisplay:10.37,2013-02-16 07:32:00,
2013-02-16 07:37:00,44.2,44.2,30.08,NNW,337,3.5,3.5,100,0.00,OVC,,0.00,0.0,WeatherDisplay:10.37,2013-02-16 07:37:00,
2013-02-16 07:42:00,44.2,44.2,30.08,North,359,5.0,5.0,100,0.00,OVC,,0.00,0.0,WeatherDisplay:10.37,2013-02-16 07:42:00,
2013-02-16 07:47:00,44.2,44.2,30.08,NNW,337,3.5,3.5,100,0.00,OVC,,0.00,0.0,WeatherDisplay:10.37,2013-02-16 07:47:00,
2013-02-16 07:52:00,44.3,44.3,30.08,NNW,337,1.2,1.2,100,0.00,OVC,,0.00,5.0,WeatherDisplay:10.37,2013-02-16 07:52:00,
2013-02-16 07:57:00,44.3,44.3,30.08,NNW,339,1.2,1.2,100,0.00,SCT,,0.00,5.0,WeatherDisplay:10.37,2013-02-16 07:57:00,
2013-02-16 08:03:00,44.3,44.3,30.08,North,0,2.0,2.0,100,0.00,BKN,,0.00,7.0,WeatherDisplay:10.37,2013-02-16 08:03:00,
2013-02-16 08:08:00,44.3,44.3,30.08,North,0,0.0,0.0,100,0.00,OVC,,0.00,7.0,WeatherDisplay:10.37,2013-02-16 08:08:00,
2013-02-16 08:13:00,44.3,44.3,30.08,North,359,3.0,3.0,100,0.00,OVC,,0.00,7.0,WeatherDisplay:10.37,2013-02-16 08:13:00,
2013-02-16 08:18:00,44.3,44.3,30.08,North,354,2.0,2.0,100,0.00,OVC,,0.00,11.0,WeatherDisplay:10.37,2013-02-16 08:18:00,
2013-02-16 08:23:00,44.3,44.3,30.08,North,0,2.3,0.0,100,0.00,OVC,,0.00,14.0,WeatherDisplay:10.37,2013-02-16 08:23:00,
2013-02-16 08:29:00,44.5,44.5,30.08,NNW,335,2.3,2.3,100,0.00,OVC,,0.00,19.0,WeatherDisplay:10.37,2013-02-16 08:29:00,
2013-02-16 08:34:00,44.5,44.5,30.08,NNW,347,4.6,4.6,100,0.00,BKN,,0.00,25.0,WeatherDisplay:10.37,2013-02-16 08:34:00,
2013-02-16 08:39:00,44.6,44.6,30.08,North,0,1.2,0.0,100,0.00,OVC,,0.00,25.0,WeatherDisplay:10.37,2013-02-16 08:39:00,
2013-02-16 08:44:00,44.6,44.6,30.08,NNW,339,1.2,0.0,100,0.00,BKN,,0.00,37.0,WeatherDisplay:10.37,2013-02-16 08:44:00,
2013-02-16 08:49:00,44.6,44.6,30.08,NNW,335,0.0,0.0,100,0.00,BKN,,0.00,39.0,WeatherDisplay:10.37,2013-02-16 08:49:00,
2013-02-16 08:55:00,44.8,44.8,30.08,NW,315,3.0,3.0,100,0.00,BKN,,0.00,49.0,WeatherDisplay:10.37,2013-02-16 08:55:00,
2013-02-16 09:00:00,44.8,44.8,30.08,WNW,299,0.0,0.0,100,0.00,SCT,,0.00,62.0,WeatherDisplay:10.37,2013-02-16 09:00:00,
2013-02-16 09:05:00,44.8,44.8,30.08,NW,304,3.5,3.5,100,0.00,SCT,,0.00,72.0,WeatherDisplay:10.37,2013-02-16 09:05:00,
2013-02-16 09:10:00,45.1,45.1,30.08,NW,309,1.2,1.2,100,0.00,SCT,,0.00,86.0,WeatherDisplay:10.37,2013-02-16 09:10:00,
2013-02-16 09:15:00,45.4,45.4,30.08,WNW,293,0.0,3.0,100,0.00,SCT,,0.00,79.0,WeatherDisplay:10.37,2013-02-16 09:15:00,
2013-02-16 09:20:00,46.0,46.0,30.08,WNW,294,1.2,0.0,100,0.00,BKN,,0.00,72.0,WeatherDisplay:10.37,2013-02-16 09:20:00,
2013-02-16 09:25:00,46.1,46.1,30.09,NW,304,0.0,0.0,100,0.00,BKN,,0.00,56.0,WeatherDisplay:10.37,2013-02-16 09:25:00,
2013-02-16 09:30:00,46.0,46.0,30.09,WNW,299,1.2,1.2,100,0.00,OVC,,0.00,46.0,WeatherDisplay:10.37,2013-02-16 09:30:00,
2013-02-16 09:35:00,45.7,45.7,30.09,North,356,2.3,2.3,100,0.00,OVC,,0.00,33.0,WeatherDisplay:10.37,2013-02-16 09:35:00,
2013-02-16 09:40:00,45.4,45.4,30.09,North,359,1.2,0.0,100,0.00,OVC,,0.00,30.0,WeatherDisplay:10.37,2013-02-16 09:40:00,
2013-02-16 09:45:00,45.1,45.1,30.09,North,356,1.2,0.0,100,0.00,OVC,,0.00,35.0,WeatherDisplay:10.37,2013-02-16 09:45:00,
2013-02-16 09:51:00,45.1,45.1,30.09,North,356,0.0,0.0,100,0.00,OVC,,0.00,35.0,WeatherDisplay:10.37,2013-02-16 09:51:00,
2013-02-16 09:56:00,44.9,44.9,30.09,North,354,0.0,0.0,100,0.00,OVC,,0.00,32.0,WeatherDisplay:10.37,2013-02-16 09:56:00,
2013-02-16 10:01:00,44.8,44.8,30.09,North,349,0.0,0.0,100,0.00,OVC,,0.00,32.0,WeatherDisplay:10.37,2013-02-16 10:01:00,
2013-02-16 10:06:00,44.8,44.8,30.09,North,0,0.0,0.0,100,0.00,OVC,,0.00,90.0,WeatherDisplay:10.37,2013-02-16 10:06:00,
2013-02-16 10:11:00,45.1,45.1,30.09,North,350,2.3,2.3,100,0.00,BKN,,0.00,99.0,WeatherDisplay:10.37,2013-02-16 10:11:00,
2013-02-16 10:17:00,46.2,46.2,30.09,North,356,5.8,5.8,100,0.00,SCT,,0.00,135.0,WeatherDisplay:10.37,2013-02-16 10:17:00,
2013-02-16 10:22:00,46.8,46.8,30.09,North,357,5.8,5.8,100,0.00,BKN,,0.00,95.0,WeatherDisplay:10.37,2013-02-16 10:22:00,
2013-02-16 10:27:00,47.1,47.1,30.09,SSW,202,3.5,3.5,100,0.00,BKN,,0.00,111.0,WeatherDisplay:10.37,2013-02-16 10:27:00,
2013-02-16 10:32:00,47.4,47.4,30.09,NNW,340,2.3,2.3,100,0.00,BKN,,0.00,100.0,WeatherDisplay:10.37,2013-02-16 10:32:00,
2013-02-16 10:37:00,47.6,47.6,30.09,NNW,342,1.2,0.0,100,0.00,OVC,,0.00,77.0,WeatherDisplay:10.37,2013-02-16 10:37:00,
2013-02-16 10:42:00,47.7,47.7,30.09,NNW,342,3.0,3.0,100,0.00,OVC,,0.00,81.0,WeatherDisplay:10.37,2013-02-16 10:42:00,
2013-02-16 10:47:00,47.7,47.7,30.09,WNW,282,1.2,1.2,100,0.00,OVC,,0.00,83.0,WeatherDisplay:10.37,2013-02-16 10:47:00,
2013-02-16 10:53:00,47.7,47.7,30.09,NNW,346,1.0,0.0,100,0.00,OVC,,0.00,90.0,WeatherDisplay:10.37,2013-02-16 10:53:00,
2013-02-16 10:58:00,47.9,47.9,30.09,North,0,2.0,2.0,100,0.00,OVC,,0.00,97.0,WeatherDisplay:10.37,2013-02-16 10:58:00,
2013-02-16 11:03:00,47.9,47.9,30.09,North,349,3.0,3.0,100,0.00,OVC,,0.00,88.0,WeatherDisplay:10.37,2013-02-16 11:03:00,
2013-02-16 11:08:00,48.0,48.0,30.09,SSW,202,4.6,4.6,100,0.00,OVC,,0.00,81.0,WeatherDisplay:10.37,2013-02-16 11:08:00,
2013-02-16 11:13:00,48.0,48.0,30.09,NNW,347,3.5,3.5,100,0.00,OVC,,0.00,100.0,WeatherDisplay:10.37,2013-02-16 11:13:00,
2013-02-16 11:18:00,48.0,48.0,30.09,North,0,3.5,3.5,100,0.00,OVC,,0.00,97.0,WeatherDisplay:10.37,2013-02-16 11:18:00,
2013-02-16 11:23:00,48.2,48.2,30.09,NNW,339,2.3,2.3,100,0.00,OVC,,0.00,84.0,WeatherDisplay:10.37,2013-02-16 11:23:00,
2013-02-16 11:28:00,48.3,48.3,30.09,NNW,343,4.6,4.6,100,0.00,BKN,,0.00,148.0,WeatherDisplay:10.37,2013-02-16 11:28:00,
2013-02-16 11:34:00,48.8,48.8,30.09,NNW,346,4.6,4.6,100,0.00,CLR,,0.00,271.0,WeatherDisplay:10.37,2013-02-16 11:34:00,
2013-02-16 11:39:00,49.5,49.5,30.09,NNW,339,6.9,6.9,100,0.00,CLR,,0.00,375.0,WeatherDisplay:10.37,2013-02-16 11:39:00,
2013-02-16 11:44:00,50.1,50.1,30.09,NNW,347,6.9,6.9,100,0.00,CLR,,0.00,320.0,WeatherDisplay:10.37,2013-02-16 11:44:00,
2013-02-16 11:49:00,50.2,50.2,30.09,North,0,3.5,3.5,100,0.00,CLR,,0.00,392.0,WeatherDisplay:10.37,2013-02-16 11:49:00,
2013-02-16 11:54:00,50.5,50.5,30.09,NNW,344,5.8,5.8,100,0.00,CLR,,0.00,308.0,WeatherDisplay:10.37,2013-02-16 11:54:00,
2013-02-16 11:59:00,50.5,50.5,30.09,NNW,336,3.5,4.0,100,0.00,FEW,,0.00,287.0,WeatherDisplay:10.37,2013-02-16 11:59:00,
2013-02-16 12:04:00,51.0,51.0,30.09,NNW,344,3.5,3.5,100,0.00,FEW,,0.00,257.0,WeatherDisplay:10.37,2013-02-16 12:04:00,
2013-02-16 12:10:00,50.7,50.7,30.08,North,0,10.4,10.4,100,0.00,CLR,,0.00,329.0,WeatherDisplay:10.37,2013-02-16 12:10:00,
2013-02-16 12:15:00,50.5,50.5,30.08,NNW,347,6.9,6.9,100,0.00,FEW,,0.00,243.0,WeatherDisplay:10.37,2013-02-16 12:15:00,
2013-02-16 12:20:00,50.8,50.8,30.08,North,0,8.1,8.1,100,0.00,SCT,,0.00,232.0,WeatherDisplay:10.37,2013-02-16 12:20:00,
2013-02-16 12:25:00,50.5,50.5,30.08,NNW,343,10.4,10.4,100,0.00,SCT,,0.00,171.0,WeatherDisplay:10.37,2013-02-16 12:25:00,
2013-02-16 12:30:00,50.4,50.4,30.08,North,353,3.5,3.5,100,0.00,BKN,,0.00,139.0,WeatherDisplay:10.37,2013-02-16 12:30:00,
2013-02-16 12:35:00,50.2,50.2,30.08,North,0,5.8,5.8,100,0.00,BKN,,0.00,155.0,WeatherDisplay:10.37,2013-02-16 12:35:00,
2013-02-16 12:40:00,50.2,50.2,30.08,SSE,160,3.5,3.5,100,0.00,BKN,,0.00,155.0,WeatherDisplay:10.37,2013-02-16 12:40:00,
2013-02-16 12:45:00,50.1,50.1,30.08,North,359,11.5,11.5,100,0.00,OVC,,0.00,79.0,WeatherDisplay:10.37,2013-02-16 12:45:00,
2013-02-16 12:50:00,49.9,49.9,30.08,North,349,5.8,5.8,100,0.00,OVC,,0.00,135.0,WeatherDisplay:10.37,2013-02-16 12:50:00,
2013-02-16 12:56:00,49.9,49.9,30.08,NNW,347,5.8,5.8,100,0.00,SCT,,0.00,181.0,WeatherDisplay:10.37,2013-02-16 12:56:00,
2013-02-16 13:01:00,50.1,50.1,30.08,North,0,4.6,4.6,100,0.00,OVC,,0.00,109.0,WeatherDisplay:10.37,2013-02-16 13:01:00,
2013-02-16 13:06:00,49.8,49.8,30.08,WNW,287,8.1,8.1,100,0.00,OVC,,0.00,114.0,WeatherDisplay:10.37,2013-02-16 13:06:00,
2013-02-16 13:11:00,49.6,49.6,30.08,North,0,6.9,6.9,100,0.00,BKN,,0.00,121.0,WeatherDisplay:10.37,2013-02-16 13:11:00,
2013-02-16 13:16:00,49.8,49.8,30.08,NNW,340,10.0,10.0,100,0.00,BKN,,0.00,127.0,WeatherDisplay:10.37,2013-02-16 13:16:00,
2013-02-16 13:21:00,49.8,49.8,30.08,North,354,2.3,2.3,100,0.00,BKN,,0.00,125.0,WeatherDisplay:10.37,2013-02-16 13:21:00,
2013-02-16 13:27:00,49.9,49.9,30.08,North,0,3.5,3.5,100,0.00,SCT,,0.00,158.0,WeatherDisplay:10.37,2013-02-16 13:27:00,
2013-02-16 13:32:00,50.2,50.2,30.08,NNW,343,5.8,5.8,100,0.00,CLR,,0.00,324.0,WeatherDisplay:10.37,2013-02-16 13:32:00,
2013-02-16 13:37:00,50.5,50.5,30.08,NNW,344,8.1,8.1,100,0.00,FEW,,0.00,248.0,WeatherDisplay:10.37,2013-02-16 13:37:00,
2013-02-16 13:42:00,50.8,50.8,30.08,North,0,4.6,4.6,100,0.00,FEW,,0.00,238.0,WeatherDisplay:10.37,2013-02-16 13:42:00,
2013-02-16 13:47:00,51.0,51.0,30.08,North,359,10.4,10.4,100,0.00,CLR,,0.00,282.0,WeatherDisplay:10.37,2013-02-16 13:47:00,
2013-02-16 13:52:00,51.1,51.1,30.07,NNW,340,11.5,11.5,100,0.00,CLR,,0.00,350.0,WeatherDisplay:10.37,2013-02-16 13:52:00,
2013-02-16 13:57:00,51.6,51.6,30.08,WNW,287,5.8,5.8,100,0.00,CLR,,0.00,343.0,WeatherDisplay:10.37,2013-02-16 13:57:00,
2013-02-16 14:02:00,51.6,51.6,30.07,North,0,4.6,4.6,100,0.00,CLR,,0.00,296.0,WeatherDisplay:10.37,2013-02-16 14:02:00,
2013-02-16 14:07:00,51.9,51.9,30.08,NNW,346,5.8,5.8,100,0.00,CLR,,0.00,370.0,WeatherDisplay:10.37,2013-02-16 14:07:00,
2013-02-16 14:12:00,51.6,51.6,30.08,North,357,9.2,9.2,100,0.00,FEW,,0.00,238.0,WeatherDisplay:10.37,2013-02-16 14:12:00,
2013-02-16 14:17:00,51.3,51.3,30.07,SW,236,5.8,5.8,100,0.00,CLR,,0.00,243.0,WeatherDisplay:10.37,2013-02-16 14:17:00,
2013-02-16 14:22:00,51.1,51.1,30.07,NNW,344,5.8,6.8,100,0.00,CLR,,0.00,148.0,WeatherDisplay:10.37,2013-02-16 14:22:00,
2013-02-16 14:27:00,50.8,50.8,30.07,NNW,346,6.0,6.0,100,0.00,SCT,,0.00,204.0,WeatherDisplay:10.37,2013-02-16 14:27:00,
2013-02-16 14:32:00,50.7,50.7,30.07,NNW,340,11.5,11.5,100,0.00,SCT,,0.00,143.0,WeatherDisplay:10.37,2013-02-16 14:32:00,
2013-02-16 14:38:00,50.5,50.5,30.07,NNW,340,10.4,10.4,100,0.00,SCT,,0.00,153.0,WeatherDisplay:10.37,2013-02-16 14:38:00,
2013-02-16 14:43:00,50.5,50.5,30.07,SW,232,8.1,8.1,100,0.00,SCT,,0.00,151.0,WeatherDisplay:10.37,2013-02-16 14:43:00,
2013-02-16 14:48:00,50.2,50.2,30.07,NNW,347,11.5,11.5,100,0.00,FEW,,0.00,178.0,WeatherDisplay:10.37,2013-02-16 14:48:00,
2013-02-16 14:53:00,50.2,50.2,30.07,WSW,237,11.5,11.5,100,0.00,CLR,,0.00,218.0,WeatherDisplay:10.37,2013-02-16 14:53:00,
2013-02-16 14:59:00,50.1,50.1,30.07,NNW,342,11.5,11.5,100,0.00,SCT,,0.00,130.0,WeatherDisplay:10.37,2013-02-16 14:59:00,
2013-02-16 15:04:00,50.1,50.1,30.07,North,353,11.5,11.5,100,0.00,SCT,,0.00,104.0,WeatherDisplay:10.37,2013-02-16 15:04:00,
2013-02-16 15:09:00,50.1,50.1,30.07,NNW,340,10.4,10.4,100,0.00,SCT,,0.00,114.0,WeatherDisplay:10.37,2013-02-16 15:09:00,
2013-02-16 15:14:00,49.9,49.9,30.07,North,0,8.0,8.0,100,0.00,SCT,,0.00,113.0,WeatherDisplay:10.37,2013-02-16 15:14:00,
2013-02-16 15:19:00,49.9,49.9,30.07,North,354,3.5,3.5,100,0.00,SCT,,0.00,120.0,WeatherDisplay:10.37,2013-02-16 15:19:00,
2013-02-16 15:24:00,50.1,50.1,30.07,SW,229,5.0,5.0,100,0.00,CLR,,0.00,146.0,WeatherDisplay:10.37,2013-02-16 15:24:00,
2013-02-16 15:30:00,49.8,49.8,30.06,North,357,10.4,10.4,100,0.00,BKN,,0.00,79.0,WeatherDisplay:10.37,2013-02-16 15:30:00,
2013-02-16 15:35:00,49.6,49.6,30.06,NNW,340,8.1,8.1,100,0.00,BKN,,0.00,74.0,WeatherDisplay:10.37,2013-02-16 15:35:00,
2013-02-16 15:40:00,49.6,49.6,30.06,NNW,344,11.5,11.5,100,0.00,BKN,,0.00,65.0,WeatherDisplay:10.37,2013-02-16 15:40:00,
2013-02-16 15:45:00,49.5,49.5,30.06,WSW,251,9.2,9.2,100,0.00,BKN,,0.00,60.0,WeatherDisplay:10.37,2013-02-16 15:45:00,
2013-02-16 15:50:00,49.5,49.5,30.07,NNW,339,13.8,13.8,100,0.00,BKN,,0.00,58.0,WeatherDisplay:10.37,2013-02-16 15:50:00,
2013-02-16 15:55:00,49.4,49.4,30.07,NNW,340,5.8,5.8,100,0.00,BKN,,0.00,56.0,WeatherDisplay:10.37,2013-02-16 15:55:00,
2013-02-16 16:00:00,49.2,49.2,30.07,SW,226,11.5,11.5,100,0.00,BKN,,0.00,53.0,WeatherDisplay:10.37,2013-02-16 16:00:00,
2013-02-16 16:05:00,49.1,49.1,30.07,WSW,237,11.5,11.5,100,0.00,BKN,,0.00,49.0,WeatherDisplay:10.37,2013-02-16 16:05:00,
2013-02-16 16:10:00,48.9,48.9,30.07,WSW,237,7.0,7.0,100,0.00,BKN,,0.00,48.0,WeatherDisplay:10.37,2013-02-16 16:10:00,
2013-02-16 16:15:00,48.9,48.9,30.07,North,0,11.5,11.5,100,0.00,SCT,,0.00,48.0,WeatherDisplay:10.37,2013-02-16 16:15:00,
2013-02-16 16:21:00,48.8,48.8,30.07,North,0,10.4,10.4,100,0.00,BKN,,0.00,40.0,WeatherDisplay:10.37,2013-02-16 16:21:00,
2013-02-16 16:26:00,48.8,48.8,30.07,NNW,346,11.5,11.5,100,0.00,BKN,,0.00,35.0,WeatherDisplay:10.37,2013-02-16 16:26:00,
2013-02-16 16:31:00,48.6,48.6,30.07,North,0,11.5,11.5,100,0.00,SCT,,0.00,33.0,WeatherDisplay:10.37,2013-02-16 16:31:00,
2013-02-16 16:36:00,48.6,48.6,30.07,NW,315,11.5,11.5,100,0.00,SCT,,0.00,33.0,WeatherDisplay:10.37,2013-02-16 16:36:00,
2013-02-16 16:41:00,48.5,48.5,30.07,North,354,7.0,7.0,100,0.00,SCT,,0.00,28.0,WeatherDisplay:10.37,2013-02-16 16:41:00,
2013-02-16 16:46:00,48.3,48.3,30.07,North,0,11.5,11.5,100,0.00,SCT,,0.00,21.0,WeatherDisplay:10.37,2013-02-16 16:46:00,
2013-02-16 16:51:00,48.3,48.3,30.07,SW,222,6.9,6.9,100,0.00,SCT,,0.00,21.0,WeatherDisplay:10.37,2013-02-16 16:51:00,
2013-02-16 16:56:00,48.2,48.2,30.07,North,0,6.9,6.9,100,0.00,FEW,,0.00,19.0,WeatherDisplay:10.37,2013-02-16 16:56:00,
2013-02-16 17:01:00,48.0,48.0,30.07,NNW,344,11.5,11.5,100,0.00,CLR,,0.00,18.0,WeatherDisplay:10.37,2013-02-16 17:01:00,
2013-02-16 17:07:00,47.9,47.9,30.07,North,0,11.5,11.5,100,0.00,CLR,,0.00,12.0,WeatherDisplay:10.37,2013-02-16 17:07:00,
2013-02-16 17:12:00,47.9,47.9,30.07,SW,226,12.0,12.0,100,0.00,OVC,,0.00,11.0,WeatherDisplay:10.37,2013-02-16 17:12:00,
2013-02-16 17:17:00,47.7,47.7,30.07,SW,223,12.7,12.7,100,0.00,OVC,,0.00,9.0,WeatherDisplay:10.37,2013-02-16 17:17:00,
2013-02-16 17:22:00,47.7,47.7,30.07,North,0,11.5,11.5,100,0.00,OVC,,0.00,7.0,WeatherDisplay:10.37,2013-02-16 17:22:00,
2013-02-16 17:27:00,47.6,47.6,30.07,NNW,336,9.0,9.0,100,0.00,OVC,,0.00,5.0,WeatherDisplay:10.37,2013-02-16 17:27:00,
2013-02-16 17:32:00,47.4,47.4,30.07,NNW,344,11.5,11.5,100,0.00,OVC,,0.00,0.0,WeatherDisplay:10.37,2013-02-16 17:32:00,
2013-02-16 17:37:00,47.4,47.4,30.07,SW,215,13.8,13.8,100,0.00,OVC,,0.00,0.0,WeatherDisplay:10.37,2013-02-16 17:37:00,
2013-02-16 17:42:00,47.4,47.4,30.07,NNW,335,11.0,11.0,100,0.00,OVC,,0.00,0.0,WeatherDisplay:10.37,2013-02-16 17:42:00,
2013-02-16 17:47:00,47.4,47.4,30.07,North,0,11.5,11.5,100,0.00,OVC,,0.00,0.0,WeatherDisplay:10.37,2013-02-16 17:47:00,
2013-02-16 17:52:00,47.4,47.4,30.07,North,0,11.5,11.5,100,0.00,OVC,,0.00,0.0,WeatherDisplay:10.37,2013-02-16 17:52:00,
2013-02-16 17:57:00,47.4,47.4,30.07,North,0,11.5,11.5,100,0.00,CLR,,0.00,0.0,WeatherDisplay:10.37,2013-02-16 17:57:00,
2013-02-16 18:02:00,47.3,47.3,30.07,North,0,9.2,9.2,100,0.00,CLR,,0.00,0.0,WeatherDisplay:10.37,2013-02-16 18:02:00,
2013-02-16 18:08:00,47.3,47.3,30.07,NNW,336,12.7,12.7,100,0.00,CLR,,0.00,0.0,WeatherDisplay:10.37,2013-02-16 18:08:00,
2013-02-16 18:13:00,47.3,47.3,30.07,North,357,19.6,19.6,100,0.00,CLR,,0.00,0.0,WeatherDisplay:10.37,2013-02-16 18:13:00,
2013-02-16 18:18:00,47.4,47.4,30.07,North,0,11.5,11.5,100,0.00,CLR,,0.00,0.0,WeatherDisplay:10.37,2013-02-16 18:18:00,
2013-02-16 18:23:00,47.3,47.3,30.07,North,0,12.0,12.0,100,0.00,CLR,,0.00,0.0,WeatherDisplay:10.37,2013-02-16 18:23:00,
2013-02-16 18:28:00,47.3,47.3,30.07,NNW,340,13.8,13.8,100,0.00,CLR,,0.00,0.0,WeatherDisplay:10.37,2013-02-16 18:28:00,
2013-02-16 18:33:00,47.1,47.1,30.07,North,0,14.0,14.0,100,0.00,CLR,,0.00,0.0,WeatherDisplay:10.37,2013-02-16 18:33:00,
2013-02-16 18:38:00,47.1,47.1,30.07,North,352,11.5,11.5,100,0.00,CLR,,0.00,0.0,WeatherDisplay:10.37,2013-02-16 18:38:00,
2013-02-16 18:44:00,47.1,47.1,30.07,SW,230,16.1,16.1,100,0.00,CLR,,0.00,0.0,WeatherDisplay:10.37,2013-02-16 18:44:00,
2013-02-16 18:49:00,47.1,47.1,30.06,North,0,13.8,13.8,100,0.00,CLR,,0.00,0.0,WeatherDisplay:10.37,2013-02-16 18:49:00,
2013-02-16 18:54:00,47.1,47.1,30.07,SSE,158,13.8,13.8,100,0.00,CLR,,0.00,0.0,WeatherDisplay:10.37,2013-02-16 18:54:00,
2013-02-16 18:59:00,47.3,47.3,30.07,North,349,11.5,11.5,100,0.00,CLR,,0.00,0.0,WeatherDisplay:10.37,2013-02-16 18:59:00,
2013-02-16 19:04:00,47.3,47.3,30.07,NW,305,11.5,11.5,100,0.00,CLR,,0.00,0.0,WeatherDisplay:10.37,2013-02-16 19:04:00,
2013-02-16 19:09:00,47.4,47.4,30.07,WNW,284,11.5,11.5,100,0.00,CLR,,0.00,0.0,WeatherDisplay:10.37,2013-02-16 19:09:00,
2013-02-16 19:14:00,47.4,47.4,30.07,WNW,299,16.1,16.1,100,0.00,CLR,,0.00,0.0,WeatherDisplay:10.37,2013-02-16 19:14:00,
2013-02-16 19:20:00,47.4,47.4,30.07,North,0,16.1,16.1,100,0.00,CLR,,0.00,0.0,WeatherDisplay:10.37,2013-02-16 19:20:00,
2013-02-16 19:25:00,47.6,47.6,30.07,North,350,12.7,12.7,100,0.00,CLR,,0.00,0.0,WeatherDisplay:10.37,2013-02-16 19:25:00,
2013-02-16 19:30:00,47.6,47.6,30.07,NNW,342,11.5,11.5,100,0.00,CLR,,0.00,0.0,WeatherDisplay:10.37,2013-02-16 19:30:00,
2013-02-16 19:35:00,47.6,47.6,30.07,SW,236,11.5,11.5,100,0.00,CLR,,0.00,0.0,WeatherDisplay:10.37,2013-02-16 19:35:00,
2013-02-16 19:40:00,47.7,47.7,30.07,SSW,202,16.1,16.1,100,0.00,CLR,,0.00,0.0,WeatherDisplay:10.37,2013-02-16 19:40:00,
2013-02-16 19:45:00,47.7,47.7,30.07,NNW,337,12.7,12.7,100,0.00,CLR,,0.00,0.0,WeatherDisplay:10.37,2013-02-16 19:45:00,
2013-02-16 19:51:00,47.9,47.9,30.07,North,0,11.5,11.5,100,0.00,CLR,,0.00,0.0,WeatherDisplay:10.37,2013-02-16 19:51:00,
2013-02-16 19:56:00,47.9,47.9,30.07,WNW,302,10.4,10.4,100,0.00,CLR,,0.00,0.0,WeatherDisplay:10.37,2013-02-16 19:56:00,
2013-02-16 20:01:00,47.7,47.7,30.07,North,0,10.4,10.4,100,0.00,CLR,,0.00,0.0,WeatherDisplay:10.37,2013-02-16 20:01:00,
2013-02-16 20:06:00,47.7,47.7,30.07,North,0,11.5,11.5,100,0.00,CLR,,0.00,0.0,WeatherDisplay:10.37,2013-02-16 20:06:00,
2013-02-16 20:11:00,47.6,47.6,30.07,NNW,343,11.5,11.5,100,0.00,CLR,,0.00,0.0,WeatherDisplay:10.37,2013-02-16 20:11:00,
2013-02-16 20:16:00,47.6,47.6,30.07,North,0,13.8,13.8,100,0.00,CLR,,0.00,0.0,WeatherDisplay:10.37,2013-02-16 20:16:00,
2013-02-16 20:21:00,47.4,47.4,30.07,WNW,296,12.7,12.7,100,0.00,CLR,,0.00,0.0,WeatherDisplay:10.37,2013-02-16 20:21:00,
2013-02-16 20:26:00,47.6,47.6,30.07,South,169,11.5,11.5,100,0.00,CLR,,0.00,0.0,WeatherDisplay:10.37,2013-02-16 20:26:00,
2013-02-16 20:31:00,47.6,47.6,30.07,North,349,11.5,11.5,100,0.00,CLR,,0.00,0.0,WeatherDisplay:10.37,2013-02-16 20:31:00,
2013-02-16 20:36:00,47.6,47.6,30.07,North,0,11.5,11.5,100,0.00,CLR,,0.00,0.0,WeatherDisplay:10.37,2013-02-16 20:36:00,
2013-02-16 20:41:00,47.6,47.6,30.07,NNW,346,10.0,10.0,100,0.00,CLR,,0.00,0.0,WeatherDisplay:10.37,2013-02-16 20:41:00,
2013-02-16 20:46:00,47.6,47.6,30.07,NNW,343,11.5,11.5,100,0.00,CLR,,0.00,0.0,WeatherDisplay:10.37,2013-02-16 20:46:00,
2013-02-16 20:52:00,47.4,47.4,30.07,NNW,340,8.1,8.1,100,0.00,CLR,,0.00,0.0,WeatherDisplay:10.37,2013-02-16 20:52:00,
2013-02-16 20:57:00,47.4,47.4,30.07,NW,312,11.5,11.5,100,0.00,CLR,,0.00,0.0,WeatherDisplay:10.37,2013-02-16 20:57:00,
2013-02-16 21:02:00,47.4,47.4,30.08,North,352,7.0,7.0,100,0.00,CLR,,0.00,0.0,WeatherDisplay:10.37,2013-02-16 21:02:00,
2013-02-16 21:07:00,47.4,47.4,30.08,NNW,335,9.2,9.2,100,0.00,CLR,,0.00,0.0,WeatherDisplay:10.37,2013-02-16 21:07:00,
2013-02-16 21:12:00,47.4,47.4,30.08,NNW,335,3.5,3.5,100,0.00,CLR,,0.00,0.0,WeatherDisplay:10.37,2013-02-16 21:12:00,
2013-02-16 21:17:00,47.3,47.3,30.08,North,0,5.0,5.0,100,0.00,CLR,,0.00,0.0,WeatherDisplay:10.37,2013-02-16 21:17:00,
2013-02-16 21:22:00,47.3,47.3,30.08,North,356,6.9,6.9,100,0.00,CLR,,0.00,0.0,WeatherDisplay:10.37,2013-02-16 21:22:00,
2013-02-16 21:28:00,47.3,47.3,30.08,North,349,8.1,8.1,100,0.00,CLR,,0.00,0.0,WeatherDisplay:10.37,2013-02-16 21:28:00,
2013-02-16 21:33:00,47.3,47.3,30.08,SW,229,4.6,4.6,100,0.00,CLR,,0.00,0.0,WeatherDisplay:10.37,2013-02-16 21:33:00,
2013-02-16 21:38:00,47.3,47.3,30.08,NNW,340,3.5,3.5,100,0.00,CLR,,0.00,0.0,WeatherDisplay:10.37,2013-02-16 21:38:00,
2013-02-16 21:43:00,47.1,47.1,30.08,NNW,340,4.6,4.6,100,0.00,CLR,,0.00,0.0,WeatherDisplay:10.37,2013-02-16 21:43:00,
2013-02-16 21:48:00,47.1,47.1,30.08,North,352,5.8,5.8,100,0.00,CLR,,0.00,0.0,WeatherDisplay:10.37,2013-02-16 21:48:00,
2013-02-16 21:54:00,47.0,47.0,30.08,NNW,343,4.6,4.6,100,0.00,CLR,,0.00,0.0,WeatherDisplay:10.37,2013-02-16 21:54:00,
2013-02-16 21:59:00,47.0,47.0,30.08,North,0,3.5,3.5,100,0.00,CLR,,0.00,0.0,WeatherDisplay:10.37,2013-02-16 21:59:00,
2013-02-16 22:04:00,47.0,47.0,30.08,North,0,5.8,5.8,100,0.00,CLR,,0.00,0.0,WeatherDisplay:10.37,2013-02-16 22:04:00,
2013-02-16 22:09:00,47.0,47.0,30.08,WNW,295,4.6,4.6,100,0.00,CLR,,0.00,0.0,WeatherDisplay:10.37,2013-02-16 22:09:00,
2013-02-16 22:14:00,46.8,46.8,30.08,West,277,5.8,5.8,100,0.00,CLR,,0.00,0.0,WeatherDisplay:10.37,2013-02-16 22:14:00,
2013-02-16 22:19:00,46.8,46.8,30.08,NNW,337,4.6,4.6,100,0.00,CLR,,0.00,0.0,WeatherDisplay:10.37,2013-02-16 22:19:00,
2013-02-16 22:24:00,46.8,46.8,30.08,North,0,4.6,4.6,100,0.00,CLR,,0.00,0.0,WeatherDisplay:10.37,2013-02-16 22:24:00,
2013-02-16 22:29:00,47.0,47.0,30.08,SSW,212,6.9,6.9,100,0.00,CLR,,0.00,0.0,WeatherDisplay:10.37,2013-02-16 22:29:00,
2013-02-16 22:35:00,47.0,47.0,30.08,SSW,203,4.6,4.6,100,0.00,CLR,,0.00,0.0,WeatherDisplay:10.37,2013-02-16 22:35:00,
2013-02-16 22:40:00,47.1,47.1,30.08,NNW,343,6.9,6.9,100,0.00,CLR,,0.00,0.0,WeatherDisplay:10.37,2013-02-16 22:40:00,
2013-02-16 22:45:00,47.1,47.1,30.08,NNW,337,6.9,6.9,100,0.00,CLR,,0.00,0.0,WeatherDisplay:10.37,2013-02-16 22:45:00,
2013-02-16 22:50:00,47.1,47.1,30.08,North,0,3.5,3.5,100,0.00,CLR,,0.00,0.0,WeatherDisplay:10.37,2013-02-16 22:50:00,
2013-02-16 22:55:00,47.1,47.1,30.08,West,268,3.5,3.5,100,0.00,CLR,,0.00,0.0,WeatherDisplay:10.37,2013-02-16 22:55:00,
2013-02-16 23:00:00,47.1,47.1,30.08,NNW,344,5.8,5.8,100,0.00,CLR,,0.00,0.0,WeatherDisplay:10.37,2013-02-16 23:00:00,
2013-02-16 23:05:00,47.1,47.1,30.08,North,356,3.5,3.5,100,0.00,CLR,,0.00,0.0,WeatherDisplay:10.37,2013-02-16 23:05:00,
2013-02-16 23:10:00,47.1,47.1,30.08,SW,224,6.9,6.9,100,0.00,CLR,,0.00,0.0,WeatherDisplay:10.37,2013-02-16 23:10:00,
2013-02-16 23:16:00,47.3,47.3,30.08,NNW,343,4.6,4.6,100,0.00,CLR,,0.00,0.0,WeatherDisplay:10.37,2013-02-16 23:16:00,
2013-02-16 23:21:00,47.3,47.3,30.08,NNW,340,5.8,5.8,100,0.00,CLR,,0.00,0.0,WeatherDisplay:10.37,2013-02-16 23:21:00,
2013-02-16 23:26:00,47.3,47.3,30.08,North,354,3.5,3.5,100,0.00,CLR,,0.00,0.0,WeatherDisplay:10.37,2013-02-16 23:26:00,
2013-02-16 23:31:00,47.3,47.3,30.08,North,357,4.6,4.6,100,0.00,CLR,,0.00,0.0,WeatherDisplay:10.37,2013-02-16 23:31:00,
2013-02-16 23:36:00,47.3,47.3,30.08,North,0,4.6,4.6,100,0.00,CLR,,0.00,0.0,WeatherDisplay:10.37,2013-02-16 23:36:00,
2013-02-16 23:41:00,47.3,47.3,30.09,NW,313,4.6,4.6,100,0.00,CLR,,0.00,0.0,WeatherDisplay:10.37,2013-02-16 23:41:00,
2013-02-16 23:47:00,47.3,47.3,30.09,North,0,8.1,8.1,100,0.00,CLR,,0.00,0.0,WeatherDisplay:10.37,2013-02-16 23:47:00,
2013-02-16 23:52:00,47.3,47.3,30.09,North,356,6.0,6.0,100,0.00,CLR,,0.00,0.0,WeatherDisplay:10.37,2013-02-16 23:52:00,
2013-02-16 23:57:00,47.3,47.3,30.09,SW,229,4.6,4.6,100,0.00,CLR,,0.00,0.0,WeatherDisplay:10.37,2013-02-16 23:57:00,